Wind_Speed
18 16 14 13 13 14 14 16 19 20 21 21 21 19 17 17 17 19 19 20 20 20 19 19 18 18 18 17 17 17 16 16 16 16 16 16 17 17 17 17 18 18 18 18 18 18 18 19 19 19 20 20
18 15 14 14 16 16 16 17 19 20 21 21 21 21 20 18 18 20 21 21 22 21 20 20 19 19 19 18 18 17 17 16 17 17 17 17 17 17 17 18 18 18 19 19 19 19 19 19 20 20 20 20
21 20 19 20 22 22 21 20 20 21 21 22 22 23 22 20 20 22 24 23 24 23 22 21 20 19 19 19 18 18 18 17 17 17 17 18 18 18 18 19 19 19 19 19 19 19 19 20 20 20 20 20
23 23 23 24 24 24 24 23 23 22 22 22 22 24 25 25 24 25 25 24 24 24 23 22 21 20 20 19 19 19 19 18 19 18 18 18 19 19 19 20 20 20 20 20 20 19 19 19 19 19 19 19
23 25 25 25 24 23 24 24 24 22 22 21 21 22 23 25 26 26 25 24 23 23 22 22 21 21 20 20 19 19 19 19 19 19 19 19 19 19 20 20 20 20 20 20 19 19 18 18 17 17 16 16
24 25 27 26 24 23 24 24 23 22 22 21 21 22 23 24 25 25 26 24 24 24 24 23 22 22 22 21 21 20 20 20 20 19 19 19 20 20 20 20 20 20 20 19 18 17 17 16 15 15 14 13
27 28 28 26 24 24 24 24 22 22 22 21 22 23 24 25 25 26 26 26 26 26 25 24 23 23 23 22 21 21 21 21 21 20 19 19 19 19 19 19 19 19 18 18 17 16 15 15 15 14 13 13
31 30 28 26 25 23 23 23 23 24 24 24 24 25 26 27 27 28 28 27 27 26 25 24 23 23 23 23 22 21 21 21 21 20 20 19 19 19 19 19 19 18 18 17 17 16 16 15 15 15 14 14
30 28 27 26 25 24 23 23 23 24 25 26 27 27 29 29 29 29 29 28 27 27 25 24 24 23 23 23 22 22 22 21 21 21 20 19 19 19 19 19 19 19 19 18 18 17 17 16 16 16 15 15
28 26 25 25 26 26 25 24 24 25 26 27 27 28 29 29 29 30 30 29 28 27 26 25 24 24 23 23 23 22 22 22 21 21 21 20 20 20 20 20 20 20 19 19 19 18 18 17 17 17 17 16
25 25 24 23 25 27 26 26 26 27 28 28 28 28 28 28 29 30 31 30 28 27 26 26 25 24 24 23 23 23 23 23 22 22 21 21 22 21 21 21 21 20 20 20 19 19 19 18 18 18 18 18
25 24 23 23 25 26 27 27 27 28 28 28 28 28 28 28 29 30 31 31 29 28 27 26 26 25 24 24 24 24 24 23 23 22 22 23 23 23 23 22 22 21 21 20 20 20 20 20 20 20 20 19
26 24 23 23 24 26 27 28 28 28 28 28 28 28 28 28 29 30 31 31 30 28 27 27 26 26 25 25 25 25 25 24 24 24 24 24 24 24 24 23 22 22 22 21 21 21 21 21 21 21 21 21
26 24 23 23 23 25 27 28 28 29 29 29 29 29 28 28 29 30 31 32 31 30 29 28 28 27 26 26 26 26 26 26 25 26 26 26 26 25 25 24 24 23 23 23 22 22 22 21 21 22 21 21
28 27 27 26 26 27 28 28 29 30 31 31 30 30 29 29 30 31 32 32 32 31 30 29 29 29 28 28 28 28 28 27 28 27 28 27 27 27 26 26 25 25 24 24 23 23 23 22 22 22 22 22
32 32 31 30 30 30 29 30 31 32 32 32 31 30 30 30 30 31 32 33 33 33 32 31 30 30 29 29 30 30 30 29 29 29 29 29 29 28 28 27 26 26 25 25 24 24 24 23 23 23 23 22
35 35 34 34 33 32 32 33 34 34 34 34 33 32 32 31 31 32 33 34 35 34 34 32 31 31 31 31 31 32 31 31 31 31 31 30 30 30 29 28 27 27 26 26 25 25 24 24 24 24 23 23
38 37 37 36 35 35 35 36 36 36 36 36 36 35 35 34 33 33 34 35 36 35 35 34 33 32 32 32 33 33 32 32 32 32 32 32 32 31 30 29 29 28 27 26 26 25 25 25 25 25 24 24
40 40 39 39 38 37 37 38 37 37 38 37 37 37 37 37 36 35 35 36 37 37 36 35 34 33 33 33 34 34 34 34 34 33 33 33 33 32 31 30 30 29 28 27 27 27 27 26 26 26 25 25
40 40 40 40 39 39 38 37 38 38 39 39 39 38 38 38 37 36 36 36 37 37 37 36 35 34 34 34 35 35 35 35 35 35 35 34 34 33 32 31 31 30 29 28 28 28 28 28 28 27 26 25
40 40 40 40 40 40 39 38 39 39 39 40 40 39 39 39 38 37 37 37 37 37 37 36 36 35 35 35 36 37 37 37 37 36 36 35 34 33 33 32 31 30 30 29 29 30 30 30 29 28 27 27
39 39 40 40 40 40 40 40 40 40 40 42 42 41 39 39 39 39 39 38 38 38 38 37 37 36 36 36 37 38 39 38 38 37 36 35 34 34 34 33 32 31 31 31 31 32 31 31 30 29 29 29
39 39 40 41 41 41 42 42 42 42 43 43 43 42 40 40 41 41 40 39 39 39 39 38 38 37 37 37 38 40 40 39 38 37 36 35 35 35 34 34 33 33 33 33 33 33 32 31 31 31 31 31
41 41 42 43 43 43 44 44 43 43 44 44 44 42 41 41 42 41 41 41 40 40 40 39 39 39 39 39 40 41 41 40 38 37 37 37 36 36 36 35 35 35 35 35 34 34 33 33 33 33 33 33
42 42 44 45 45 44 45 44 44 44 44 44 44 42 41 41 42 41 41 42 42 41 40 40 40 40 40 41 41 42 41 40 39 39 39 38 38 38 37 37 36 36 36 36 35 34 34 34 35 35 35 35
42 43 44 44 44 44 44 44 44 44 44 43 42 42 41 40 41 42 41 43 42 41 41 41 41 41 41 41 42 42 42 41 41 41 40 40 39 38 38 38 37 37 37 36 35 35 36 36 36 37 37 36
42 43 43 43 44 44 44 44 44 43 43 42 41 43 43 42 43 43 44 45 43 41 41 42 42 41 41 42 42 43 42 42 42 42 41 41 40 40 39 39 39 38 38 38 37 37 38 38 38 39 39 38
43 43 43 43 43 44 45 45 45 44 44 45 45 46 46 44 44 45 45 46 44 41 40 42 43 42 41 42 42 42 43 42 42 42 42 42 41 41 41 40 40 39 40 40 40 39 39 40 40 40 40 38
41 43 43 43 43 44 46 46 47 46 47 47 46 46 46 44 45 45 44 45 45 42 42 45 45 43 42 43 42 43 43 42 42 42 43 43 43 43 43 42 42 42 42 42 41 41 42 42 42 41 41 39
38 41 43 44 44 45 46 46 47 46 45 45 44 43 43 43 43 43 44 46 45 44 46 47 45 42 42 43 43 42 43 43 43 43 44 44 44 45 44 44 45 44 43 43 43 43 44 44 43 42 42 40
35 38 41 43 45 45 45 45 46 44 43 42 42 41 41 41 41 41 44 46 45 45 48 47 44 41 42 46 45 43 43 44 44 44 44 45 46 46 46 47 47 46 45 45 45 45 45 45 44 44 43 41
Wind_Direction
216 220 222 216 224 227 228 226 217 214 216 223 228 229 233 234 239 243 243 244 244 243 245 247 249 250 251 251 250 248 245 244 243 242 241 241 243 243 243 244 245 246 246 247 247 247 247 248 249 249 251 252
226 227 231 225 227 236 244 242 233 234 236 237 238 239 241 238 238 244 247 249 251 251 252 252 252 254 253 253 251 249 247 245 244 244 244 244 246 247 246 246 246 246 246 247 247 247 247 247 247 248 249 251
232 239 240 240 241 241 243 241 238 241 243 240 237 237 240 241 238 239 242 243 247 251 254 255 255 255 254 252 250 249 249 247 246 246 246 246 247 247 248 247 247 246 246 246 246 245 245 246 246 247 247 249
232 240 241 242 244 241 241 239 236 237 238 236 232 231 231 233 234 236 240 242 245 248 251 254 255 255 253 251 250 250 250 249 248 247 247 247 247 246 246 247 246 246 245 245 244 244 243 243 243 244 244 245
234 237 238 240 241 241 243 242 240 237 235 233 230 231 230 230 232 237 243 247 250 252 253 255 256 256 254 253 252 252 252 252 250 249 248 247 247 246 245 245 244 244 243 242 241 240 239 238 237 236 236 237
234 234 237 242 242 241 242 244 245 242 237 233 230 232 233 233 235 240 246 249 251 252 253 253 252 252 253 252 252 253 253 253 252 250 247 246 246 245 243 242 240 239 237 236 234 231 229 227 226 225 224 225
235 234 238 243 243 241 240 241 243 242 241 238 236 236 236 237 238 242 246 249 250 251 250 250 247 246 248 249 250 251 252 252 251 250 248 246 244 242 238 235 231 229 226 224 222 220 219 219 218 219 219 221
240 239 241 243 243 243 241 240 239 240 240 238 238 239 239 240 241 242 245 248 249 250 251 249 247 245 246 249 249 250 251 251 251 250 249 245 241 236 229 224 220 216 215 214 214 215 215 217 219 220 221 224
246 244 244 246 246 245 243 241 241 241 241 240 239 239 240 242 243 245 247 248 250 251 252 250 248 246 247 250 251 251 250 250 249 248 246 242 235 228 220 216 212 210 210 210 212 215 217 220 223 226 227 229
251 248 246 248 249 249 245 243 244 246 247 247 246 244 244 244 246 248 250 251 251 252 253 251 249 248 248 250 252 251 250 249 247 244 240 234 227 221 216 213 211 211 211 212 215 218 221 225 228 231 233 234
250 253 250 249 248 249 248 246 247 248 250 250 251 250 249 248 248 249 251 252 252 252 253 252 250 248 248 250 251 249 248 247 244 239 232 227 222 218 216 214 214 214 215 218 220 223 226 229 232 235 237 238
252 256 253 250 249 249 249 248 248 248 249 251 252 253 253 252 251 250 252 253 253 253 253 252 250 249 249 249 249 248 246 244 240 234 227 223 220 219 218 218 219 220 222 224 226 228 230 232 235 237 239 241
250 255 254 252 251 251 251 251 251 251 252 253 254 254 254 254 253 253 253 254 255 255 254 253 251 250 249 249 248 246 245 242 237 231 226 223 222 222 222 223 225 226 228 229 230 232 233 235 237 240 241 243
242 247 252 254 254 254 253 253 253 254 254 256 256 256 256 255 254 253 254 255 256 255 254 253 252 251 250 250 248 245 244 241 236 231 227 226 225 226 226 228 229 230 232 232 234 235 236 238 240 241 243 243
240 242 248 254 258 257 256 257 256 256 256 256 257 257 257 256 255 254 254 255 256 255 253 251 250 249 250 249 247 244 242 240 235 231 229 229 229 230 230 231 232 233 234 235 236 237 238 240 241 242 243 243
245 247 250 254 258 259 259 259 258 258 258 258 258 257 257 256 255 254 254 254 254 254 252 251 249 247 248 247 245 242 240 238 234 231 230 230 231 232 233 233 234 235 235 236 237 238 240 241 242 242 242 241
249 252 254 255 257 258 259 258 258 258 259 259 258 257 256 256 255 253 252 251 252 252 252 250 249 248 247 246 243 240 238 236 233 231 231 232 233 233 234 235 235 236 236 237 238 240 242 242 242 241 240 240
250 252 253 254 254 254 254 255 256 257 257 257 257 257 257 256 256 254 252 251 250 250 250 250 248 248 248 247 243 240 238 236 234 233 232 233 234 235 236 236 237 237 238 238 240 242 243 243 242 240 239 238
251 252 252 252 252 251 251 252 254 254 254 255 255 255 256 255 255 254 252 251 250 249 249 249 248 248 248 247 243 240 238 237 235 234 234 234 235 236 237 237 238 238 239 240 241 243 244 243 241 240 238 237
251 251 251 251 251 251 250 251 252 253 254 254 254 254 254 255 253 252 251 249 248 248 249 249 249 248 249 247 244 240 238 237 236 235 235 235 235 237 238 238 238 239 239 241 242 244 244 243 241 239 238 238
250 250 250 250 251 251 251 252 253 253 254 255 256 255 255 256 255 252 251 250 248 248 248 249 250 250 250 248 244 239 237 236 235 235 235 236 237 237 238 239 239 239 240 241 243 243 243 241 241 239 239 239
250 249 249 249 250 252 252 252 253 253 254 255 256 256 254 255 256 254 252 251 249 249 248 249 250 251 252 250 244 239 237 236 235 236 236 236 237 238 238 239 239 240 241 242 243 243 242 241 241 240 239 239
250 248 248 248 249 249 250 250 251 252 253 254 255 255 252 252 253 253 253 252 249 248 248 249 251 252 252 251 246 239 235 236 236 236 237 237 237 238 238 239 239 240 241 242 243 243 242 241 240 239 239 239
249 248 248 248 248 249 250 251 252 252 252 254 254 254 253 253 253 252 251 251 250 249 248 249 250 251 252 251 246 240 236 235 236 237 237 237 237 238 238 239 239 240 241 242 242 243 243 241 240 239 239 239
248 248 249 250 251 253 254 254 253 253 254 254 255 254 252 253 255 255 254 252 250 249 247 247 249 249 250 250 246 241 237 236 236 236 237 237 238 238 238 239 239 240 241 243 243 244 243 242 241 240 240 240
248 247 249 251 253 254 255 255 255 256 257 257 258 258 255 251 252 255 256 255 253 250 247 245 246 247 247 247 246 242 238 237 236 237 238 238 239 239 239 239 240 241 242 244 244 244 243 242 241 240 240 240
249 247 248 249 250 251 253 254 255 256 257 256 256 257 256 252 249 250 250 251 251 250 251 250 246 245 247 246 245 243 240 238 238 238 238 239 240 240 240 240 240 242 243 244 244 243 243 242 241 241 241 241
252 249 248 248 248 249 250 251 252 252 252 252 252 252 253 251 249 249 250 254 254 247 248 254 250 245 246 247 246 244 242 240 239 239 239 239 240 241 241 242 242 242 243 244 243 243 244 243 243 243 243 243
252 251 248 247 246 247 248 249 251 251 251 253 254 254 256 255 251 249 249 253 258 254 248 249 249 246 246 247 247 247 245 243 241 240 240 239 240 241 241 242 242 242 243 244 244 244 244 244 244 244 244 244
248 249 248 246 245 245 248 250 252 254 255 256 258 259 261 261 258 255 251 248 249 253 253 250 247 248 251 251 248 248 247 245 243 241 241 240 240 241 241 242 243 242 243 244 245 245 246 246 246 246 245 245
245 246 247 247 246 245 246 248 251 254 255 255 256 257 259 259 258 255 255 253 249 246 251 253 247 246 253 253 249 247 247 245 244 242 241 240 240 241 240 241 243 243 243 244 245 246 247 248 247 247 247 245
Height
3126 3127 3127 3128 3130 3131 3131 3132 3133 3133 3134 3135 3135 3136 3136 3138 3139 3141 3141 3141 3141 3141 3141 3141 3141 3141 3141 3142 3142 3143 3143 3144 3144 3144 3145 3145 3145 3145 3146 3146 3146 3146 3147 3147 3148 3149 3149 3150 3150 3150 3150 3150
3124 3125 3126 3127 3128 3130 3131 3132 3133 3133 3134 3134 3134 3135 3135 3136 3138 3139 3140 3140 3140 3140 3140 3139 3140 3140 3140 3140 3141 3141 3142 3142 3142 3143 3143 3144 3144 3144 3144 3144 3144 3145 3145 3145 3146 3146 3147 3147 3148 3148 3148 3148
3123 3124 3125 3126 3128 3129 3130 3130 3131 3133 3133 3133 3133 3133 3134 3135 3136 3137 3138 3139 3139 3139 3138 3138 3138 3138 3138 3139 3139 3139 3140 3140 3141 3141 3142 3142 3142 3142 3142 3142 3143 3143 3143 3143 3144 3144 3145 3145 3146 3146 3146 3147
3122 3123 3125 3125 3126 3127 3128 3129 3130 3131 3131 3131 3132 3132 3133 3134 3135 3136 3136 3137 3137 3137 3137 3137 3136 3136 3136 3137 3137 3138 3138 3138 3139 3139 3139 3140 3140 3140 3141 3141 3141 3141 3141 3141 3142 3142 3142 3143 3143 3144 3144 3145
3120 3121 3123 3124 3124 3125 3126 3127 3128 3129 3129 3129 3129 3130 3131 3132 3133 3133 3134 3134 3134 3134 3134 3135 3135 3134 3134 3135 3135 3135 3136 3136 3136 3137 3137 3137 3138 3138 3139 3139 3139 3139 3139 3139 3140 3140 3140 3141 3141 3142 3142 3143
3119 3120 3121 3122 3122 3123 3123 3124 3125 3126 3126 3127 3127 3128 3128 3129 3130 3131 3131 3132 3132 3132 3132 3132 3133 3132 3132 3133 3133 3133 3134 3134 3134 3135 3135 3135 3135 3136 3136 3137 3137 3137 3137 3137 3138 3138 3138 3139 3140 3140 3141 3141
3117 3118 3119 3120 3120 3121 3121 3122 3123 3123 3123 3124 3125 3125 3126 3126 3127 3128 3129 3129 3129 3129 3130 3130 3130 3130 3130 3130 3131 3131 3131 3131 3132 3132 3133 3133 3133 3134 3134 3134 3135 3135 3135 3135 3136 3136 3137 3137 3138 3139 3139 3140
3115 3116 3117 3117 3118 3119 3119 3120 3120 3120 3121 3122 3122 3123 3123 3124 3124 3125 3126 3126 3127 3127 3127 3127 3128 3128 3128 3128 3129 3129 3129 3129 3129 3130 3130 3130 3131 3131 3132 3132 3133 3133 3133 3134 3134 3135 3135 3136 3136 3137 3138 3138
3112 3113 3113 3114 3115 3116 3117 3117 3118 3118 3118 3119 3119 3120 3120 3121 3122 3122 3123 3123 3124 3124 3124 3125 3125 3125 3125 3125 3126 3126 3126 3127 3127 3127 3128 3128 3129 3129 3130 3130 3131 3131 3132 3132 3133 3133 3134 3134 3135 3135 3136 3137
3110 3110 3111 3111 3112 3113 3114 3115 3115 3115 3116 3116 3116 3117 3117 3118 3118 3119 3120 3120 3121 3121 3121 3122 3123 3123 3123 3123 3123 3124 3124 3124 3125 3125 3126 3126 3127 3127 3128 3129 3129 3130 3130 3131 3131 3132 3132 3133 3133 3134 3134 3135
3107 3108 3108 3109 3109 3110 3111 3111 3112 3112 3113 3113 3113 3114 3114 3115 3115 3116 3116 3117 3118 3119 3119 3119 3120 3120 3120 3120 3120 3121 3122 3122 3123 3123 3124 3124 3125 3125 3126 3127 3127 3128 3129 3129 3130 3130 3131 3131 3132 3132 3133 3133
3104 3105 3106 3106 3107 3107 3108 3108 3109 3109 3110 3110 3110 3111 3111 3111 3112 3112 3113 3114 3115 3116 3116 3116 3117 3117 3118 3118 3118 3118 3119 3120 3120 3121 3122 3122 3123 3124 3124 3125 3125 3126 3127 3127 3128 3128 3129 3129 3130 3130 3131 3131
3101 3102 3103 3104 3105 3105 3106 3106 3106 3106 3107 3107 3107 3108 3108 3108 3109 3109 3110 3110 3111 3112 3113 3113 3114 3114 3115 3115 3115 3116 3116 3117 3118 3118 3119 3120 3121 3121 3122 3123 3123 3124 3125 3125 3126 3126 3127 3128 3128 3128 3129 3129
3098 3099 3100 3101 3102 3103 3103 3103 3104 3104 3103 3104 3105 3105 3105 3105 3106 3106 3106 3107 3108 3109 3110 3110 3111 3111 3112 3112 3113 3113 3114 3115 3115 3116 3117 3118 3118 3119 3120 3120 3121 3122 3122 3123 3123 3124 3125 3125 3126 3126 3126 3127
3096 3097 3098 3099 3100 3100 3101 3101 3101 3101 3101 3101 3102 3102 3102 3102 3103 3103 3104 3104 3105 3106 3107 3107 3108 3108 3109 3110 3110 3111 3111 3112 3113 3114 3114 3115 3116 3117 3117 3118 3118 3119 3120 3120 3121 3122 3122 3123 3123 3124 3124 3124
3093 3094 3095 3096 3097 3097 3098 3098 3098 3098 3098 3098 3099 3099 3099 3100 3100 3100 3101 3101 3102 3102 3103 3104 3105 3106 3106 3107 3107 3108 3109 3109 3110 3111 3112 3113 3113 3114 3115 3115 3116 3116 3117 3118 3118 3119 3119 3120 3121 3121 3122 3122
3090 3091 3092 3092 3093 3094 3094 3094 3094 3095 3095 3095 3096 3096 3096 3097 3097 3097 3098 3098 3098 3099 3100 3101 3102 3102 3103 3104 3104 3105 3106 3107 3107 3108 3109 3110 3110 3111 3112 3112 3113 3114 3114 3115 3115 3116 3117 3117 3118 3118 3119 3119
3085 3087 3088 3088 3089 3090 3090 3090 3091 3091 3091 3091 3092 3093 3093 3093 3094 3094 3094 3095 3095 3096 3096 3097 3098 3099 3100 3101 3101 3102 3103 3104 3104 3105 3106 3107 3107 3108 3109 3109 3110 3111 3111 3112 3113 3113 3114 3114 3115 3116 3116 3117
3082 3083 3084 3084 3085 3086 3086 3086 3087 3087 3087 3087 3088 3088 3089 3090 3090 3091 3091 3091 3092 3092 3093 3094 3095 3096 3097 3098 3098 3099 3100 3101 3101 3102 3103 3103 3104 3105 3106 3106 3107 3107 3108 3109 3110 3110 3111 3111 3112 3112 3113 3114
3078 3079 3079 3080 3081 3081 3082 3082 3082 3083 3083 3083 3083 3084 3085 3086 3087 3087 3087 3087 3088 3089 3090 3091 3092 3093 3094 3094 3095 3096 3097 3097 3098 3098 3099 3100 3101 3102 3102 3103 3104 3104 3105 3106 3107 3107 3108 3108 3109 3109 3110 3111
3074 3075 3075 3076 3076 3077 3078 3078 3078 3079 3079 3079 3079 3080 3081 3082 3082 3083 3083 3084 3084 3085 3086 3087 3088 3089 3090 3091 3092 3092 3093 3093 3094 3095 3095 3096 3097 3098 3099 3099 3100 3101 3102 3103 3103 3104 3104 3105 3105 3106 3107 3108
3069 3070 3071 3071 3072 3073 3073 3074 3074 3075 3075 3075 3076 3077 3078 3078 3079 3079 3079 3080 3081 3082 3083 3083 3084 3085 3086 3087 3088 3088 3089 3089 3090 3091 3092 3093 3094 3094 3095 3096 3097 3098 3099 3099 3100 3100 3101 3101 3102 3103 3104 3104
3065 3065 3066 3067 3067 3068 3068 3069 3070 3071 3071 3071 3072 3073 3074 3075 3075 3075 3076 3076 3077 3078 3079 3080 3081 3081 3082 3082 3083 3084 3084 3085 3086 3088 3089 3089 3090 3090 3091 3092 3093 3094 3095 3095 3096 3097 3097 3098 3099 3099 3100 3100
3059 3060 3060 3061 3062 3063 3063 3065 3066 3067 3067 3067 3068 3070 3071 3071 3071 3072 3072 3073 3073 3074 3075 3076 3077 3077 3077 3077 3078 3079 3080 3082 3083 3084 3084 3085 3085 3086 3087 3088 3089 3090 3091 3091 3092 3093 3094 3095 3095 3095 3096 3096
3055 3056 3056 3056 3058 3059 3060 3061 3062 3062 3063 3064 3065 3066 3067 3067 3067 3068 3068 3069 3069 3070 3071 3072 3072 3072 3072 3072 3073 3075 3076 3077 3078 3079 3079 3080 3081 3082 3083 3084 3085 3086 3087 3088 3088 3090 3090 3091 3091 3092 3092 3093
3050 3051 3052 3053 3054 3055 3056 3057 3057 3057 3059 3060 3061 3062 3062 3063 3064 3065 3065 3065 3065 3066 3067 3067 3067 3068 3068 3068 3069 3070 3071 3073 3073 3074 3075 3076 3077 3079 3080 3080 3081 3082 3083 3084 3085 3086 3086 3086 3087 3087 3088 3088
3044 3046 3047 3048 3049 3050 3050 3051 3052 3053 3054 3056 3057 3057 3057 3058 3059 3061 3061 3060 3061 3062 3062 3063 3063 3063 3063 3064 3064 3065 3067 3068 3069 3070 3071 3072 3073 3074 3075 3076 3077 3078 3079 3080 3080 3081 3081 3082 3082 3082 3083 3084
3039 3040 3042 3043 3044 3044 3044 3044 3045 3047 3048 3048 3049 3050 3051 3052 3053 3055 3056 3056 3057 3058 3059 3059 3059 3060 3060 3060 3060 3061 3062 3064 3065 3066 3067 3068 3069 3070 3070 3071 3073 3074 3074 3075 3075 3076 3077 3077 3077 3078 3079 3080
3033 3034 3035 3036 3037 3037 3037 3038 3039 3040 3041 3042 3043 3045 3046 3047 3048 3050 3051 3052 3053 3054 3054 3054 3055 3055 3055 3056 3057 3057 3058 3059 3060 3061 3062 3063 3064 3065 3066 3067 3068 3069 3069 3069 3071 3071 3071 3072 3072 3073 3075 3076
3028 3028 3029 3029 3030 3030 3031 3032 3033 3035 3037 3038 3040 3041 3042 3043 3044 3044 3045 3047 3048 3049 3049 3049 3050 3051 3052 3052 3052 3053 3054 3054 3055 3056 3057 3058 3059 3060 3061 3062 3062 3063 3064 3064 3065 3066 3066 3067 3068 3069 3070 3072
3023 3023 3023 3023 3024 3025 3026 3027 3027 3030 3032 3033 3035 3036 3036 3037 3038 3039 3041 3041 3043 3043 3044 3045 3045 3046 3048 3047 3047 3048 3048 3049 3050 3051 3052 3053 3053 3054 3055 3056 3055 3057 3059 3059 3060 3061 3061 3062 3064 3064 3066 3068